Index of /20260428/WXO-DD/model_rdps/10km/00/024
Name Last modified Size Description
Parent Directory -
20260428T00Z_MSC_RDPS_AbsoluteVorticity_IsbL-0250_RLatLon0.09_PT024H.grib2 2026-04-28 02:49 643K
20260428T00Z_MSC_RDPS_AbsoluteVorticity_IsbL-0500_RLatLon0.09_PT024H.grib2 2026-04-28 02:49 578K
20260428T00Z_MSC_RDPS_AbsoluteVorticity_IsbL-0700_RLatLon0.09_PT024H.grib2 2026-04-28 02:49 620K
20260428T00Z_MSC_RDPS_AbsoluteVorticity_IsbL-0850_RLatLon0.09_PT024H.grib2 2026-04-28 02:49 774K
20260428T00Z_MSC_RDPS_AirTemp_AGL-120m_RLatLon0.09_PT024H.grib2 2026-04-28 02:49 387K
20260428T00Z_MSC_RDPS_AirTemp_AGL-2m_RLatLon0.09_PT024H.grib2 2026-04-28 02:49 620K
20260428T00Z_MSC_RDPS_AirTemp_AGL-40m_RLatLon0.09_PT024H.grib2 2026-04-28 02:49 397K
20260428T00Z_MSC_RDPS_AirTemp_AGL-80m_RLatLon0.09_PT024H.grib2 2026-04-28 02:49 391K
20260428T00Z_MSC_RDPS_AirTemp_IsbL-0001_RLatLon0.09_PT024H.grib2 2026-04-28 02:49 311K
20260428T00Z_MSC_RDPS_AirTemp_IsbL-0005_RLatLon0.09_PT024H.grib2 2026-04-28 02:49 296K
20260428T00Z_MSC_RDPS_AirTemp_IsbL-0010_RLatLon0.09_PT024H.grib2 2026-04-28 02:49 308K
20260428T00Z_MSC_RDPS_AirTemp_IsbL-0020_RLatLon0.09_PT024H.grib2 2026-04-28 02:49 321K
20260428T00Z_MSC_RDPS_AirTemp_IsbL-0030_RLatLon0.09_PT024H.grib2 2026-04-28 02:49 342K
20260428T00Z_MSC_RDPS_AirTemp_IsbL-0050_RLatLon0.09_PT024H.grib2 2026-04-28 02:49 318K
20260428T00Z_MSC_RDPS_AirTemp_IsbL-0100_RLatLon0.09_PT024H.grib2 2026-04-28 02:49 433K
20260428T00Z_MSC_RDPS_AirTemp_IsbL-0150_RLatLon0.09_PT024H.grib2 2026-04-28 02:49 435K
20260428T00Z_MSC_RDPS_AirTemp_IsbL-0175_RLatLon0.09_PT024H.grib2 2026-04-28 02:49 424K
20260428T00Z_MSC_RDPS_AirTemp_IsbL-0200_RLatLon0.09_PT024H.grib2 2026-04-28 02:49 427K
20260428T00Z_MSC_RDPS_AirTemp_IsbL-0225_RLatLon0.09_PT024H.grib2 2026-04-28 02:49 429K
20260428T00Z_MSC_RDPS_AirTemp_IsbL-0250_RLatLon0.09_PT024H.grib2 2026-04-28 02:49 437K
20260428T00Z_MSC_RDPS_AirTemp_IsbL-0275_RLatLon0.09_PT024H.grib2 2026-04-28 02:49 416K
20260428T00Z_MSC_RDPS_AirTemp_IsbL-0300_RLatLon0.09_PT024H.grib2 2026-04-28 02:49 421K
20260428T00Z_MSC_RDPS_AirTemp_IsbL-0350_RLatLon0.09_PT024H.grib2 2026-04-28 02:49 432K
20260428T00Z_MSC_RDPS_AirTemp_IsbL-0400_RLatLon0.09_PT024H.grib2 2026-04-28 02:49 433K
20260428T00Z_MSC_RDPS_AirTemp_IsbL-0450_RLatLon0.09_PT024H.grib2 2026-04-28 02:49 440K
20260428T00Z_MSC_RDPS_AirTemp_IsbL-0500_RLatLon0.09_PT024H.grib2 2026-04-28 02:49 416K
20260428T00Z_MSC_RDPS_AirTemp_IsbL-0550_RLatLon0.09_PT024H.grib2 2026-04-28 02:49 434K
20260428T00Z_MSC_RDPS_AirTemp_IsbL-0600_RLatLon0.09_PT024H.grib2 2026-04-28 02:49 449K
20260428T00Z_MSC_RDPS_AirTemp_IsbL-0650_RLatLon0.09_PT024H.grib2 2026-04-28 02:49 464K
20260428T00Z_MSC_RDPS_AirTemp_IsbL-0700_RLatLon0.09_PT024H.grib2 2026-04-28 02:49 487K
20260428T00Z_MSC_RDPS_AirTemp_IsbL-0750_RLatLon0.09_PT024H.grib2 2026-04-28 02:49 411K
20260428T00Z_MSC_RDPS_AirTemp_IsbL-0800_RLatLon0.09_PT024H.grib2 2026-04-28 02:49 450K
20260428T00Z_MSC_RDPS_AirTemp_IsbL-0850_RLatLon0.09_PT024H.grib2 2026-04-28 02:49 497K
20260428T00Z_MSC_RDPS_AirTemp_IsbL-0875_RLatLon0.09_PT024H.grib2 2026-04-28 02:49 516K
20260428T00Z_MSC_RDPS_AirTemp_IsbL-0900_RLatLon0.09_PT024H.grib2 2026-04-28 02:49 522K
20260428T00Z_MSC_RDPS_AirTemp_IsbL-0925_RLatLon0.09_PT024H.grib2 2026-04-28 02:49 531K
20260428T00Z_MSC_RDPS_AirTemp_IsbL-0950_RLatLon0.09_PT024H.grib2 2026-04-28 02:49 531K
20260428T00Z_MSC_RDPS_AirTemp_IsbL-0970_RLatLon0.09_PT024H.grib2 2026-04-28 02:49 525K
20260428T00Z_MSC_RDPS_AirTemp_IsbL-0985_RLatLon0.09_PT024H.grib2 2026-04-28 02:49 515K
20260428T00Z_MSC_RDPS_AirTemp_IsbL-1000_RLatLon0.09_PT024H.grib2 2026-04-28 02:49 502K
20260428T00Z_MSC_RDPS_AirTemp_IsbL-1015_RLatLon0.09_PT024H.grib2 2026-04-28 02:49 502K
20260428T00Z_MSC_RDPS_Albedo_Sfc_RLatLon0.09_PT024H.grib2 2026-04-28 02:49 159K
20260428T00Z_MSC_RDPS_CAPE_Sfc_RLatLon0.09_PT024H.grib2 2026-04-28 02:49 1.7M
20260428T00Z_MSC_RDPS_CIN_Sfc_RLatLon0.09_PT024H.grib2 2026-04-28 02:49 1.2M
20260428T00Z_MSC_RDPS_CloudWater_EAtm_RLatLon0.09_PT024H.grib2 2026-04-28 02:49 223K
20260428T00Z_MSC_RDPS_ConvectivePrecip-Accum_Sfc_RLatLon0.09_PT024H.grib2 2026-04-28 02:49 865K
20260428T00Z_MSC_RDPS_DewPointDepression_AGL-2m_RLatLon0.09_PT024H.grib2 2026-04-28 02:49 408K
20260428T00Z_MSC_RDPS_DewPointDepression_IsbL-0001_RLatLon0.09_PT024H.grib2 2026-04-28 02:49 193
20260428T00Z_MSC_RDPS_DewPointDepression_IsbL-0005_RLatLon0.09_PT024H.grib2 2026-04-28 02:49 193
20260428T00Z_MSC_RDPS_DewPointDepression_IsbL-0010_RLatLon0.09_PT024H.grib2 2026-04-28 02:49 193
20260428T00Z_MSC_RDPS_DewPointDepression_IsbL-0020_RLatLon0.09_PT024H.grib2 2026-04-28 02:49 193
20260428T00Z_MSC_RDPS_DewPointDepression_IsbL-0030_RLatLon0.09_PT024H.grib2 2026-04-28 02:49 193
20260428T00Z_MSC_RDPS_DewPointDepression_IsbL-0050_RLatLon0.09_PT024H.grib2 2026-04-28 02:49 86K
20260428T00Z_MSC_RDPS_DewPointDepression_IsbL-0100_RLatLon0.09_PT024H.grib2 2026-04-28 02:49 132K
20260428T00Z_MSC_RDPS_DewPointDepression_IsbL-0150_RLatLon0.09_PT024H.grib2 2026-04-28 02:49 154K
20260428T00Z_MSC_RDPS_DewPointDepression_IsbL-0175_RLatLon0.09_PT024H.grib2 2026-04-28 02:49 182K
20260428T00Z_MSC_RDPS_DewPointDepression_IsbL-0200_RLatLon0.09_PT024H.grib2 2026-04-28 02:49 218K
20260428T00Z_MSC_RDPS_DewPointDepression_IsbL-0225_RLatLon0.09_PT024H.grib2 2026-04-28 02:49 269K
20260428T00Z_MSC_RDPS_DewPointDepression_IsbL-0250_RLatLon0.09_PT024H.grib2 2026-04-28 02:49 308K
20260428T00Z_MSC_RDPS_DewPointDepression_IsbL-0275_RLatLon0.09_PT024H.grib2 2026-04-28 02:49 313K
20260428T00Z_MSC_RDPS_DewPointDepression_IsbL-0300_RLatLon0.09_PT024H.grib2 2026-04-28 02:49 331K
20260428T00Z_MSC_RDPS_DewPointDepression_IsbL-0350_RLatLon0.09_PT024H.grib2 2026-04-28 02:49 338K
20260428T00Z_MSC_RDPS_DewPointDepression_IsbL-0400_RLatLon0.09_PT024H.grib2 2026-04-28 02:49 349K
20260428T00Z_MSC_RDPS_DewPointDepression_IsbL-0450_RLatLon0.09_PT024H.grib2 2026-04-28 02:49 358K
20260428T00Z_MSC_RDPS_DewPointDepression_IsbL-0500_RLatLon0.09_PT024H.grib2 2026-04-28 02:49 364K
20260428T00Z_MSC_RDPS_DewPointDepression_IsbL-0550_RLatLon0.09_PT024H.grib2 2026-04-28 02:49 375K
20260428T00Z_MSC_RDPS_DewPointDepression_IsbL-0600_RLatLon0.09_PT024H.grib2 2026-04-28 02:49 384K
20260428T00Z_MSC_RDPS_DewPointDepression_IsbL-0650_RLatLon0.09_PT024H.grib2 2026-04-28 02:49 388K
20260428T00Z_MSC_RDPS_DewPointDepression_IsbL-0700_RLatLon0.09_PT024H.grib2 2026-04-28 02:49 402K
20260428T00Z_MSC_RDPS_DewPointDepression_IsbL-0750_RLatLon0.09_PT024H.grib2 2026-04-28 02:49 421K
20260428T00Z_MSC_RDPS_DewPointDepression_IsbL-0800_RLatLon0.09_PT024H.grib2 2026-04-28 02:49 449K
20260428T00Z_MSC_RDPS_DewPointDepression_IsbL-0850_RLatLon0.09_PT024H.grib2 2026-04-28 02:49 472K
20260428T00Z_MSC_RDPS_DewPointDepression_IsbL-0875_RLatLon0.09_PT024H.grib2 2026-04-28 02:49 472K
20260428T00Z_MSC_RDPS_DewPointDepression_IsbL-0900_RLatLon0.09_PT024H.grib2 2026-04-28 02:49 464K
20260428T00Z_MSC_RDPS_DewPointDepression_IsbL-0925_RLatLon0.09_PT024H.grib2 2026-04-28 02:49 453K
20260428T00Z_MSC_RDPS_DewPointDepression_IsbL-0950_RLatLon0.09_PT024H.grib2 2026-04-28 02:49 442K
20260428T00Z_MSC_RDPS_DewPointDepression_IsbL-0970_RLatLon0.09_PT024H.grib2 2026-04-28 02:49 431K
20260428T00Z_MSC_RDPS_DewPointDepression_IsbL-0985_RLatLon0.09_PT024H.grib2 2026-04-28 02:49 423K
20260428T00Z_MSC_RDPS_DewPointDepression_IsbL-1000_RLatLon0.09_PT024H.grib2 2026-04-28 02:49 419K
20260428T00Z_MSC_RDPS_DewPointDepression_IsbL-1015_RLatLon0.09_PT024H.grib2 2026-04-28 02:49 412K
20260428T00Z_MSC_RDPS_DewPoint_AGL-2m_RLatLon0.09_PT024H.grib2 2026-04-28 02:49 308K
20260428T00Z_MSC_RDPS_DownwardLongwaveRadiationFlux-Accum_Sfc_RLatLon0.09_PT024H.grib2 2026-04-28 02:49 437K
20260428T00Z_MSC_RDPS_DownwardShortwaveRadiationFlux-Accum_NTAtm_RLatLon0.09_PT024H.grib2 2026-04-28 02:49 120K
20260428T00Z_MSC_RDPS_DownwardShortwaveRadiationFlux-Accum_Sfc_RLatLon0.09_PT024H.grib2 2026-04-28 02:49 636K
20260428T00Z_MSC_RDPS_FreezingRain-Accum12h_Sfc_RLatLon0.09_PT024H.grib2 2026-04-28 02:49 58K
20260428T00Z_MSC_RDPS_FreezingRain-Accum1h_Sfc_RLatLon0.09_PT024H.grib2 2026-04-28 02:49 13K
20260428T00Z_MSC_RDPS_FreezingRain-Accum24h_Sfc_RLatLon0.09_PT024H.grib2 2026-04-28 02:49 91K
20260428T00Z_MSC_RDPS_FreezingRain-Accum3h_Sfc_RLatLon0.09_PT024H.grib2 2026-04-28 02:49 17K
20260428T00Z_MSC_RDPS_FreezingRain-Accum6h_Sfc_RLatLon0.09_PT024H.grib2 2026-04-28 02:49 26K
20260428T00Z_MSC_RDPS_FreezingRain-Accum_Sfc_RLatLon0.09_PT024H.grib2 2026-04-28 02:49 113K
20260428T00Z_MSC_RDPS_GeopotentialHeight_IsbL-0001_RLatLon0.09_PT024H.grib2 2026-04-28 02:49 273K
20260428T00Z_MSC_RDPS_GeopotentialHeight_IsbL-0005_RLatLon0.09_PT024H.grib2 2026-04-28 02:49 311K
20260428T00Z_MSC_RDPS_GeopotentialHeight_IsbL-0010_RLatLon0.09_PT024H.grib2 2026-04-28 02:49 340K
20260428T00Z_MSC_RDPS_GeopotentialHeight_IsbL-0020_RLatLon0.09_PT024H.grib2 2026-04-28 02:49 306K
20260428T00Z_MSC_RDPS_GeopotentialHeight_IsbL-0030_RLatLon0.09_PT024H.grib2 2026-04-28 02:49 308K
20260428T00Z_MSC_RDPS_GeopotentialHeight_IsbL-0050_RLatLon0.09_PT024H.grib2 2026-04-28 02:49 342K
20260428T00Z_MSC_RDPS_GeopotentialHeight_IsbL-0100_RLatLon0.09_PT024H.grib2 2026-04-28 02:49 290K
20260428T00Z_MSC_RDPS_GeopotentialHeight_IsbL-0150_RLatLon0.09_PT024H.grib2 2026-04-28 02:49 232K
20260428T00Z_MSC_RDPS_GeopotentialHeight_IsbL-0175_RLatLon0.09_PT024H.grib2 2026-04-28 02:49 265K
20260428T00Z_MSC_RDPS_GeopotentialHeight_IsbL-0200_RLatLon0.09_PT024H.grib2 2026-04-28 02:49 269K
20260428T00Z_MSC_RDPS_GeopotentialHeight_IsbL-0225_RLatLon0.09_PT024H.grib2 2026-04-28 02:49 270K
20260428T00Z_MSC_RDPS_GeopotentialHeight_IsbL-0250_RLatLon0.09_PT024H.grib2 2026-04-28 02:49 270K
20260428T00Z_MSC_RDPS_GeopotentialHeight_IsbL-0275_RLatLon0.09_PT024H.grib2 2026-04-28 02:49 269K
20260428T00Z_MSC_RDPS_GeopotentialHeight_IsbL-0300_RLatLon0.09_PT024H.grib2 2026-04-28 02:49 269K
20260428T00Z_MSC_RDPS_GeopotentialHeight_IsbL-0350_RLatLon0.09_PT024H.grib2 2026-04-28 02:49 235K
20260428T00Z_MSC_RDPS_GeopotentialHeight_IsbL-0400_RLatLon0.09_PT024H.grib2 2026-04-28 02:49 231K
20260428T00Z_MSC_RDPS_GeopotentialHeight_IsbL-0450_RLatLon0.09_PT024H.grib2 2026-04-28 02:49 299K
20260428T00Z_MSC_RDPS_GeopotentialHeight_IsbL-0500_RLatLon0.09_PT024H.grib2 2026-04-28 02:49 295K
20260428T00Z_MSC_RDPS_GeopotentialHeight_IsbL-0550_RLatLon0.09_PT024H.grib2 2026-04-28 02:49 291K
20260428T00Z_MSC_RDPS_GeopotentialHeight_IsbL-0600_RLatLon0.09_PT024H.grib2 2026-04-28 02:49 287K
20260428T00Z_MSC_RDPS_GeopotentialHeight_IsbL-0650_RLatLon0.09_PT024H.grib2 2026-04-28 02:49 257K
20260428T00Z_MSC_RDPS_GeopotentialHeight_IsbL-0700_RLatLon0.09_PT024H.grib2 2026-04-28 02:49 256K
20260428T00Z_MSC_RDPS_GeopotentialHeight_IsbL-0750_RLatLon0.09_PT024H.grib2 2026-04-28 02:49 339K
20260428T00Z_MSC_RDPS_GeopotentialHeight_IsbL-0800_RLatLon0.09_PT024H.grib2 2026-04-28 02:49 345K
20260428T00Z_MSC_RDPS_GeopotentialHeight_IsbL-0850_RLatLon0.09_PT024H.grib2 2026-04-28 02:49 354K
20260428T00Z_MSC_RDPS_GeopotentialHeight_IsbL-0875_RLatLon0.09_PT024H.grib2 2026-04-28 02:49 355K
20260428T00Z_MSC_RDPS_GeopotentialHeight_IsbL-0900_RLatLon0.09_PT024H.grib2 2026-04-28 02:49 361K
20260428T00Z_MSC_RDPS_GeopotentialHeight_IsbL-0925_RLatLon0.09_PT024H.grib2 2026-04-28 02:49 363K
20260428T00Z_MSC_RDPS_GeopotentialHeight_IsbL-0950_RLatLon0.09_PT024H.grib2 2026-04-28 02:49 368K
20260428T00Z_MSC_RDPS_GeopotentialHeight_IsbL-0970_RLatLon0.09_PT024H.grib2 2026-04-28 02:49 374K
20260428T00Z_MSC_RDPS_GeopotentialHeight_IsbL-0985_RLatLon0.09_PT024H.grib2 2026-04-28 02:49 381K
20260428T00Z_MSC_RDPS_GeopotentialHeight_IsbL-1000_RLatLon0.09_PT024H.grib2 2026-04-28 02:49 392K
20260428T00Z_MSC_RDPS_GeopotentialHeight_IsbL-1015_RLatLon0.09_PT024H.grib2 2026-04-28 02:49 406K
20260428T00Z_MSC_RDPS_Humidex_Sfc_RLatLon0.09_PT024H.grib2 2026-04-28 02:49 2.2M
20260428T00Z_MSC_RDPS_IcePellets-Accum12h_Sfc_RLatLon0.09_PT024H.grib2 2026-04-28 02:49 17K
20260428T00Z_MSC_RDPS_IcePellets-Accum1h_Sfc_RLatLon0.09_PT024H.grib2 2026-04-28 02:49 7.5K
20260428T00Z_MSC_RDPS_IcePellets-Accum24h_Sfc_RLatLon0.09_PT024H.grib2 2026-04-28 02:49 17K
20260428T00Z_MSC_RDPS_IcePellets-Accum3h_Sfc_RLatLon0.09_PT024H.grib2 2026-04-28 02:49 9.3K
20260428T00Z_MSC_RDPS_IcePellets-Accum6h_Sfc_RLatLon0.09_PT024H.grib2 2026-04-28 02:49 12K
20260428T00Z_MSC_RDPS_IcePellets-Accum_Sfc_RLatLon0.09_PT024H.grib2 2026-04-28 02:49 19K
20260428T00Z_MSC_RDPS_KIndex_Sfc_RLatLon0.09_PT024H.grib2 2026-04-28 02:49 2.5M
20260428T00Z_MSC_RDPS_LatentHeatNetFlux_Sfc_RLatLon0.09_PT024H.grib2 2026-04-28 02:49 353K
20260428T00Z_MSC_RDPS_LiftedIndex-MU-VT_IsbL-0500_RLatLon0.09_PT024H.grib2 2026-04-28 02:49 2.4M
20260428T00Z_MSC_RDPS_NetLongwaveRadiationFlux-Accum_Sfc_RLatLon0.09_PT024H.grib2 2026-04-28 02:49 577K
20260428T00Z_MSC_RDPS_NetShortwaveRadiationFlux-Accum_Sfc_RLatLon0.09_PT024H.grib2 2026-04-28 02:49 634K
20260428T00Z_MSC_RDPS_PlanetaryBoundaryLayerHeight_Sfc_RLatLon0.09_PT024H.grib2 2026-04-28 02:49 1.0M
20260428T00Z_MSC_RDPS_Precip-Accum12h_Sfc_RLatLon0.09_PT024H.grib2 2026-04-28 02:49 1.6M
20260428T00Z_MSC_RDPS_Precip-Accum1h_Sfc_RLatLon0.09_PT024H.grib2 2026-04-28 02:49 1.2M
20260428T00Z_MSC_RDPS_Precip-Accum24h_Sfc_RLatLon0.09_PT024H.grib2 2026-04-28 02:49 1.8M
20260428T00Z_MSC_RDPS_Precip-Accum3h_Sfc_RLatLon0.09_PT024H.grib2 2026-04-28 02:49 1.3M
20260428T00Z_MSC_RDPS_Precip-Accum6h_Sfc_RLatLon0.09_PT024H.grib2 2026-04-28 02:49 1.3M
20260428T00Z_MSC_RDPS_Precip-Accum_Sfc_RLatLon0.09_PT024H.grib2 2026-04-28 02:49 1.8M
20260428T00Z_MSC_RDPS_PrecipRate_Sfc_RLatLon0.09_PT024H.grib2 2026-04-28 02:49 134K
20260428T00Z_MSC_RDPS_PrecipType-Instant_Sfc_RLatLon0.09_PT024H.grib2 2026-04-28 02:49 556K
20260428T00Z_MSC_RDPS_Pressure-Trend3h_Sfc_RLatLon0.09_PT024H.grib2 2026-04-28 02:49 1.2M
20260428T00Z_MSC_RDPS_Pressure_MSL_RLatLon0.09_PT024H.grib2 2026-04-28 02:49 327K
20260428T00Z_MSC_RDPS_Pressure_PVU-1.5_RLatLon0.09_PT024H.grib2 2026-04-28 02:49 2.5M
20260428T00Z_MSC_RDPS_Pressure_PVU-1_RLatLon0.09_PT024H.grib2 2026-04-28 02:49 2.4M
20260428T00Z_MSC_RDPS_Pressure_PVU-2_RLatLon0.09_PT024H.grib2 2026-04-28 02:49 2.4M
20260428T00Z_MSC_RDPS_Pressure_Sfc_RLatLon0.09_PT024H.grib2 2026-04-28 02:49 499K
20260428T00Z_MSC_RDPS_RadiativeTemp_Sfc_RLatLon0.09_PT024H.grib2 2026-04-28 02:49 311K
20260428T00Z_MSC_RDPS_Rain-Accum12h_Sfc_RLatLon0.09_PT024H.grib2 2026-04-28 02:49 1.1M
20260428T00Z_MSC_RDPS_Rain-Accum1h_Sfc_RLatLon0.09_PT024H.grib2 2026-04-28 02:49 528K
20260428T00Z_MSC_RDPS_Rain-Accum24h_Sfc_RLatLon0.09_PT024H.grib2 2026-04-28 02:49 1.3M
20260428T00Z_MSC_RDPS_Rain-Accum3h_Sfc_RLatLon0.09_PT024H.grib2 2026-04-28 02:49 605K
20260428T00Z_MSC_RDPS_Rain-Accum6h_Sfc_RLatLon0.09_PT024H.grib2 2026-04-28 02:49 890K
20260428T00Z_MSC_RDPS_Rain-Accum_Sfc_RLatLon0.09_PT024H.grib2 2026-04-28 02:49 1.4M
20260428T00Z_MSC_RDPS_RelativeHumidity_AGL-2m_RLatLon0.09_PT024H.grib2 2026-04-28 02:49 1.0M
20260428T00Z_MSC_RDPS_RelativeHumidity_IsbL-0010_RLatLon0.09_PT024H.grib2 2026-04-28 02:49 624K
20260428T00Z_MSC_RDPS_RelativeHumidity_IsbL-0020_RLatLon0.09_PT024H.grib2 2026-04-28 02:49 650K
20260428T00Z_MSC_RDPS_RelativeHumidity_IsbL-0030_RLatLon0.09_PT024H.grib2 2026-04-28 02:49 609K
20260428T00Z_MSC_RDPS_RelativeHumidity_IsbL-0050_RLatLon0.09_PT024H.grib2 2026-04-28 02:49 326K
20260428T00Z_MSC_RDPS_RelativeHumidity_IsbL-0100_RLatLon0.09_PT024H.grib2 2026-04-28 02:49 283K
20260428T00Z_MSC_RDPS_RelativeHumidity_IsbL-0150_RLatLon0.09_PT024H.grib2 2026-04-28 02:49 426K
20260428T00Z_MSC_RDPS_RelativeHumidity_IsbL-0175_RLatLon0.09_PT024H.grib2 2026-04-28 02:49 488K
20260428T00Z_MSC_RDPS_RelativeHumidity_IsbL-0200_RLatLon0.09_PT024H.grib2 2026-04-28 02:49 554K
20260428T00Z_MSC_RDPS_RelativeHumidity_IsbL-0225_RLatLon0.09_PT024H.grib2 2026-04-28 02:49 624K
20260428T00Z_MSC_RDPS_RelativeHumidity_IsbL-0250_RLatLon0.09_PT024H.grib2 2026-04-28 02:49 691K
20260428T00Z_MSC_RDPS_RelativeHumidity_IsbL-0275_RLatLon0.09_PT024H.grib2 2026-04-28 02:49 723K
20260428T00Z_MSC_RDPS_RelativeHumidity_IsbL-0300_RLatLon0.09_PT024H.grib2 2026-04-28 02:49 766K
20260428T00Z_MSC_RDPS_RelativeHumidity_IsbL-0350_RLatLon0.09_PT024H.grib2 2026-04-28 02:49 786K
20260428T00Z_MSC_RDPS_RelativeHumidity_IsbL-0400_RLatLon0.09_PT024H.grib2 2026-04-28 02:49 800K
20260428T00Z_MSC_RDPS_RelativeHumidity_IsbL-0450_RLatLon0.09_PT024H.grib2 2026-04-28 02:49 807K
20260428T00Z_MSC_RDPS_RelativeHumidity_IsbL-0500_RLatLon0.09_PT024H.grib2 2026-04-28 02:49 814K
20260428T00Z_MSC_RDPS_RelativeHumidity_IsbL-0550_RLatLon0.09_PT024H.grib2 2026-04-28 02:49 830K
20260428T00Z_MSC_RDPS_RelativeHumidity_IsbL-0600_RLatLon0.09_PT024H.grib2 2026-04-28 02:49 846K
20260428T00Z_MSC_RDPS_RelativeHumidity_IsbL-0650_RLatLon0.09_PT024H.grib2 2026-04-28 02:49 857K
20260428T00Z_MSC_RDPS_RelativeHumidity_IsbL-0700_RLatLon0.09_PT024H.grib2 2026-04-28 02:49 890K
20260428T00Z_MSC_RDPS_RelativeHumidity_IsbL-0750_RLatLon0.09_PT024H.grib2 2026-04-28 02:49 932K
20260428T00Z_MSC_RDPS_RelativeHumidity_IsbL-0800_RLatLon0.09_PT024H.grib2 2026-04-28 02:49 1.0M
20260428T00Z_MSC_RDPS_RelativeHumidity_IsbL-0850_RLatLon0.09_PT024H.grib2 2026-04-28 02:49 1.0M
20260428T00Z_MSC_RDPS_RelativeHumidity_IsbL-0875_RLatLon0.09_PT024H.grib2 2026-04-28 02:49 1.1M
20260428T00Z_MSC_RDPS_RelativeHumidity_IsbL-0900_RLatLon0.09_PT024H.grib2 2026-04-28 02:49 1.1M
20260428T00Z_MSC_RDPS_RelativeHumidity_IsbL-0925_RLatLon0.09_PT024H.grib2 2026-04-28 02:49 1.1M
20260428T00Z_MSC_RDPS_RelativeHumidity_IsbL-0950_RLatLon0.09_PT024H.grib2 2026-04-28 02:49 1.1M
20260428T00Z_MSC_RDPS_RelativeHumidity_IsbL-0970_RLatLon0.09_PT024H.grib2 2026-04-28 02:49 1.0M
20260428T00Z_MSC_RDPS_RelativeHumidity_IsbL-0985_RLatLon0.09_PT024H.grib2 2026-04-28 02:49 1.0M
20260428T00Z_MSC_RDPS_RelativeHumidity_IsbL-1000_RLatLon0.09_PT024H.grib2 2026-04-28 02:49 1.0M
20260428T00Z_MSC_RDPS_RelativeHumidity_IsbL-1015_RLatLon0.09_PT024H.grib2 2026-04-28 02:49 1.0M
20260428T00Z_MSC_RDPS_Runoff-Accum_Sfc_RLatLon0.09_PT024H.grib2 2026-04-28 02:49 49K
20260428T00Z_MSC_RDPS_SWEATIndex_Sfc_RLatLon0.09_PT024H.grib2 2026-04-28 02:49 2.4M
20260428T00Z_MSC_RDPS_SeeingIndex_EAtm_RLatLon0.09_PT024H.grib2 2026-04-28 02:49 1.0M
20260428T00Z_MSC_RDPS_SensibleHeatNetFlux_Sfc_RLatLon0.09_PT024H.grib2 2026-04-28 02:49 319K
20260428T00Z_MSC_RDPS_ShowalterIndex_IsbL-0500_RLatLon0.09_PT024H.grib2 2026-04-28 02:49 2.6M
20260428T00Z_MSC_RDPS_SkyTransparencyIndex_EAtm_RLatLon0.09_PT024H.grib2 2026-04-28 02:49 700K
20260428T00Z_MSC_RDPS_Snow-Accum12h_Sfc_RLatLon0.09_PT024H.grib2 2026-04-28 02:49 581K
20260428T00Z_MSC_RDPS_Snow-Accum1h_Sfc_RLatLon0.09_PT024H.grib2 2026-04-28 02:49 535K
20260428T00Z_MSC_RDPS_Snow-Accum24h_Sfc_RLatLon0.09_PT024H.grib2 2026-04-28 02:49 667K
20260428T00Z_MSC_RDPS_Snow-Accum3h_Sfc_RLatLon0.09_PT024H.grib2 2026-04-28 02:49 493K
20260428T00Z_MSC_RDPS_Snow-Accum6h_Sfc_RLatLon0.09_PT024H.grib2 2026-04-28 02:49 561K
20260428T00Z_MSC_RDPS_Snow-Accum_Sfc_RLatLon0.09_PT024H.grib2 2026-04-28 02:49 717K
20260428T00Z_MSC_RDPS_SnowDensity_Sfc_RLatLon0.09_PT024H.grib2 2026-04-28 02:49 180K
20260428T00Z_MSC_RDPS_SnowDepth_Sfc_RLatLon0.09_PT024H.grib2 2026-04-28 02:49 698K
20260428T00Z_MSC_RDPS_SoilTemp_DBS-0to10cm_RLatLon0.09_PT024H.grib2 2026-04-28 02:49 225K
20260428T00Z_MSC_RDPS_SoilTemp_Sfc_RLatLon0.09_PT024H.grib2 2026-04-28 02:49 264K
20260428T00Z_MSC_RDPS_SoilVolumetricIceContent_Sfc_RLatLon0.09_PT024H.grib2 2026-04-28 02:49 166K
20260428T00Z_MSC_RDPS_SoilVolumetricWaterContent_DBS-0to10cm_RLatLon0.09_PT024H.grib2 2026-04-28 02:49 263K
20260428T00Z_MSC_RDPS_SoilVolumetricWaterContent_DBS-0to1cm_RLatLon0.09_PT024H.grib2 2026-04-28 02:49 334K
20260428T00Z_MSC_RDPS_SpecificHumidity_AGL-120m_RLatLon0.09_PT024H.grib2 2026-04-28 02:49 483K
20260428T00Z_MSC_RDPS_SpecificHumidity_AGL-2m_RLatLon0.09_PT024H.grib2 2026-04-28 02:49 651K
20260428T00Z_MSC_RDPS_SpecificHumidity_AGL-40m_RLatLon0.09_PT024H.grib2 2026-04-28 02:49 489K
20260428T00Z_MSC_RDPS_SpecificHumidity_AGL-80m_RLatLon0.09_PT024H.grib2 2026-04-28 02:49 485K
20260428T00Z_MSC_RDPS_SpecificHumidity_IsbL-0001_RLatLon0.09_PT024H.grib2 2026-04-28 02:49 343K
20260428T00Z_MSC_RDPS_SpecificHumidity_IsbL-0005_RLatLon0.09_PT024H.grib2 2026-04-28 02:49 359K
20260428T00Z_MSC_RDPS_SpecificHumidity_IsbL-0010_RLatLon0.09_PT024H.grib2 2026-04-28 02:49 400K
20260428T00Z_MSC_RDPS_SpecificHumidity_IsbL-0020_RLatLon0.09_PT024H.grib2 2026-04-28 02:49 391K
20260428T00Z_MSC_RDPS_SpecificHumidity_IsbL-0030_RLatLon0.09_PT024H.grib2 2026-04-28 02:49 372K
20260428T00Z_MSC_RDPS_SpecificHumidity_IsbL-0050_RLatLon0.09_PT024H.grib2 2026-04-28 02:49 466K
20260428T00Z_MSC_RDPS_SpecificHumidity_IsbL-0100_RLatLon0.09_PT024H.grib2 2026-04-28 02:49 354K
20260428T00Z_MSC_RDPS_SpecificHumidity_IsbL-0150_RLatLon0.09_PT024H.grib2 2026-04-28 02:49 386K
20260428T00Z_MSC_RDPS_SpecificHumidity_IsbL-0175_RLatLon0.09_PT024H.grib2 2026-04-28 02:49 465K
20260428T00Z_MSC_RDPS_SpecificHumidity_IsbL-0200_RLatLon0.09_PT024H.grib2 2026-04-28 02:49 457K
20260428T00Z_MSC_RDPS_SpecificHumidity_IsbL-0225_RLatLon0.09_PT024H.grib2 2026-04-28 02:49 460K
20260428T00Z_MSC_RDPS_SpecificHumidity_IsbL-0250_RLatLon0.09_PT024H.grib2 2026-04-28 02:49 561K
20260428T00Z_MSC_RDPS_SpecificHumidity_IsbL-0275_RLatLon0.09_PT024H.grib2 2026-04-28 02:49 477K
20260428T00Z_MSC_RDPS_SpecificHumidity_IsbL-0300_RLatLon0.09_PT024H.grib2 2026-04-28 02:49 450K
20260428T00Z_MSC_RDPS_SpecificHumidity_IsbL-0350_RLatLon0.09_PT024H.grib2 2026-04-28 02:49 570K
20260428T00Z_MSC_RDPS_SpecificHumidity_IsbL-0400_RLatLon0.09_PT024H.grib2 2026-04-28 02:49 527K
20260428T00Z_MSC_RDPS_SpecificHumidity_IsbL-0450_RLatLon0.09_PT024H.grib2 2026-04-28 02:49 582K
20260428T00Z_MSC_RDPS_SpecificHumidity_IsbL-0500_RLatLon0.09_PT024H.grib2 2026-04-28 02:49 519K
20260428T00Z_MSC_RDPS_SpecificHumidity_IsbL-0550_RLatLon0.09_PT024H.grib2 2026-04-28 02:49 591K
20260428T00Z_MSC_RDPS_SpecificHumidity_IsbL-0600_RLatLon0.09_PT024H.grib2 2026-04-28 02:49 642K
20260428T00Z_MSC_RDPS_SpecificHumidity_IsbL-0650_RLatLon0.09_PT024H.grib2 2026-04-28 02:49 559K
20260428T00Z_MSC_RDPS_SpecificHumidity_IsbL-0700_RLatLon0.09_PT024H.grib2 2026-04-28 02:49 603K
20260428T00Z_MSC_RDPS_SpecificHumidity_IsbL-0750_RLatLon0.09_PT024H.grib2 2026-04-28 02:49 656K
20260428T00Z_MSC_RDPS_SpecificHumidity_IsbL-0800_RLatLon0.09_PT024H.grib2 2026-04-28 02:49 735K
20260428T00Z_MSC_RDPS_SpecificHumidity_IsbL-0850_RLatLon0.09_PT024H.grib2 2026-04-28 02:49 804K
20260428T00Z_MSC_RDPS_SpecificHumidity_IsbL-0875_RLatLon0.09_PT024H.grib2 2026-04-28 02:49 691K
20260428T00Z_MSC_RDPS_SpecificHumidity_IsbL-0900_RLatLon0.09_PT024H.grib2 2026-04-28 02:49 701K
20260428T00Z_MSC_RDPS_SpecificHumidity_IsbL-0925_RLatLon0.09_PT024H.grib2 2026-04-28 02:49 705K
20260428T00Z_MSC_RDPS_SpecificHumidity_IsbL-0950_RLatLon0.09_PT024H.grib2 2026-04-28 02:49 702K
20260428T00Z_MSC_RDPS_SpecificHumidity_IsbL-0970_RLatLon0.09_PT024H.grib2 2026-04-28 02:49 689K
20260428T00Z_MSC_RDPS_SpecificHumidity_IsbL-0985_RLatLon0.09_PT024H.grib2 2026-04-28 02:49 679K
20260428T00Z_MSC_RDPS_SpecificHumidity_IsbL-1000_RLatLon0.09_PT024H.grib2 2026-04-28 02:49 673K
20260428T00Z_MSC_RDPS_SpecificHumidity_IsbL-1015_RLatLon0.09_PT024H.grib2 2026-04-28 02:49 664K
20260428T00Z_MSC_RDPS_SpecificHumidity_Sfc_RLatLon0.09_PT024H.grib2 2026-04-28 02:49 328K
20260428T00Z_MSC_RDPS_StormRelativeHelicity_EtaL-10000_RLatLon0.09_PT024H.grib2 2026-04-28 02:49 1.1M
20260428T00Z_MSC_RDPS_StormSeverityIndex_EtaL-10000_RLatLon0.09_PT024H.grib2 2026-04-28 02:49 1.1M
20260428T00Z_MSC_RDPS_Thickness_IsbL-0850to0700_RLatLon0.09_PT024H.grib2 2026-04-28 02:49 177K
20260428T00Z_MSC_RDPS_Thickness_IsbL-1000to0500_RLatLon0.09_PT024H.grib2 2026-04-28 02:49 200K
20260428T00Z_MSC_RDPS_Thickness_IsbL-1000to0850_RLatLon0.09_PT024H.grib2 2026-04-28 02:49 185K
20260428T00Z_MSC_RDPS_TotalCloudCover_Sfc_RLatLon0.09_PT024H.grib2 2026-04-28 02:49 644K
20260428T00Z_MSC_RDPS_TotalTotalsIndex_Sfc_RLatLon0.09_PT024H.grib2 2026-04-28 02:49 2.4M
20260428T00Z_MSC_RDPS_UVIndex-ClearSky_Sfc_RLatLon0.09_PT024H.grib2 2026-04-28 02:49 172K
20260428T00Z_MSC_RDPS_UVIndex_Sfc_RLatLon0.09_PT024H.grib2 2026-04-28 02:49 393K
20260428T00Z_MSC_RDPS_UpwardLongwaveRadiationFlux_NTAtm_RLatLon0.09_PT024H.grib2 2026-04-28 02:49 496K
20260428T00Z_MSC_RDPS_UpwardShortwaveRadiationFlux_NTAtm_RLatLon0.09_PT024H.grib2 2026-04-28 02:49 343K
20260428T00Z_MSC_RDPS_VerticalVelocity_IsbL-0250_RLatLon0.09_PT024H.grib2 2026-04-28 02:49 438K
20260428T00Z_MSC_RDPS_VerticalVelocity_IsbL-0500_RLatLon0.09_PT024H.grib2 2026-04-28 02:49 550K
20260428T00Z_MSC_RDPS_VerticalVelocity_IsbL-0700_RLatLon0.09_PT024H.grib2 2026-04-28 02:49 556K
20260428T00Z_MSC_RDPS_VerticalVelocity_IsbL-0850_RLatLon0.09_PT024H.grib2 2026-04-28 02:49 713K
20260428T00Z_MSC_RDPS_VerticalWindShear_EtaL-6500_RLatLon0.09_PT024H.grib2 2026-04-28 02:49 1.2M
20260428T00Z_MSC_RDPS_WindChill_Sfc_RLatLon0.09_PT024H.grib2 2026-04-28 02:49 1.1M
20260428T00Z_MSC_RDPS_WindDir_AGL-10m_RLatLon0.09_PT024H.grib2 2026-04-28 02:49 950K
20260428T00Z_MSC_RDPS_WindDir_AGL-120m_RLatLon0.09_PT024H.grib2 2026-04-28 02:49 600K
20260428T00Z_MSC_RDPS_WindDir_AGL-40m_RLatLon0.09_PT024H.grib2 2026-04-28 02:49 622K
20260428T00Z_MSC_RDPS_WindDir_AGL-80m_RLatLon0.09_PT024H.grib2 2026-04-28 02:49 609K
20260428T00Z_MSC_RDPS_WindDir_IsbL-0001_RLatLon0.09_PT024H.grib2 2026-04-28 02:49 292K
20260428T00Z_MSC_RDPS_WindDir_IsbL-0005_RLatLon0.09_PT024H.grib2 2026-04-28 02:49 356K
20260428T00Z_MSC_RDPS_WindDir_IsbL-0010_RLatLon0.09_PT024H.grib2 2026-04-28 02:49 394K
20260428T00Z_MSC_RDPS_WindDir_IsbL-0020_RLatLon0.09_PT024H.grib2 2026-04-28 02:49 419K
20260428T00Z_MSC_RDPS_WindDir_IsbL-0030_RLatLon0.09_PT024H.grib2 2026-04-28 02:49 407K
20260428T00Z_MSC_RDPS_WindDir_IsbL-0050_RLatLon0.09_PT024H.grib2 2026-04-28 02:49 418K
20260428T00Z_MSC_RDPS_WindDir_IsbL-0100_RLatLon0.09_PT024H.grib2 2026-04-28 02:49 422K
20260428T00Z_MSC_RDPS_WindDir_IsbL-0150_RLatLon0.09_PT024H.grib2 2026-04-28 02:49 415K
20260428T00Z_MSC_RDPS_WindDir_IsbL-0175_RLatLon0.09_PT024H.grib2 2026-04-28 02:49 435K
20260428T00Z_MSC_RDPS_WindDir_IsbL-0200_RLatLon0.09_PT024H.grib2 2026-04-28 02:49 449K
20260428T00Z_MSC_RDPS_WindDir_IsbL-0225_RLatLon0.09_PT024H.grib2 2026-04-28 02:49 450K
20260428T00Z_MSC_RDPS_WindDir_IsbL-0250_RLatLon0.09_PT024H.grib2 2026-04-28 02:49 454K
20260428T00Z_MSC_RDPS_WindDir_IsbL-0275_RLatLon0.09_PT024H.grib2 2026-04-28 02:49 474K
20260428T00Z_MSC_RDPS_WindDir_IsbL-0300_RLatLon0.09_PT024H.grib2 2026-04-28 02:49 474K
20260428T00Z_MSC_RDPS_WindDir_IsbL-0350_RLatLon0.09_PT024H.grib2 2026-04-28 02:49 491K
20260428T00Z_MSC_RDPS_WindDir_IsbL-0400_RLatLon0.09_PT024H.grib2 2026-04-28 02:49 513K
20260428T00Z_MSC_RDPS_WindDir_IsbL-0450_RLatLon0.09_PT024H.grib2 2026-04-28 02:49 535K
20260428T00Z_MSC_RDPS_WindDir_IsbL-0500_RLatLon0.09_PT024H.grib2 2026-04-28 02:49 549K
20260428T00Z_MSC_RDPS_WindDir_IsbL-0550_RLatLon0.09_PT024H.grib2 2026-04-28 02:49 566K
20260428T00Z_MSC_RDPS_WindDir_IsbL-0600_RLatLon0.09_PT024H.grib2 2026-04-28 02:49 590K
20260428T00Z_MSC_RDPS_WindDir_IsbL-0650_RLatLon0.09_PT024H.grib2 2026-04-28 02:49 630K
20260428T00Z_MSC_RDPS_WindDir_IsbL-0700_RLatLon0.09_PT024H.grib2 2026-04-28 02:49 672K
20260428T00Z_MSC_RDPS_WindDir_IsbL-0750_RLatLon0.09_PT024H.grib2 2026-04-28 02:49 717K
20260428T00Z_MSC_RDPS_WindDir_IsbL-0800_RLatLon0.09_PT024H.grib2 2026-04-28 02:49 782K
20260428T00Z_MSC_RDPS_WindDir_IsbL-0850_RLatLon0.09_PT024H.grib2 2026-04-28 02:49 852K
20260428T00Z_MSC_RDPS_WindDir_IsbL-0875_RLatLon0.09_PT024H.grib2 2026-04-28 02:49 879K
20260428T00Z_MSC_RDPS_WindDir_IsbL-0900_RLatLon0.09_PT024H.grib2 2026-04-28 02:49 897K
20260428T00Z_MSC_RDPS_WindDir_IsbL-0925_RLatLon0.09_PT024H.grib2 2026-04-28 02:49 906K
20260428T00Z_MSC_RDPS_WindDir_IsbL-0950_RLatLon0.09_PT024H.grib2 2026-04-28 02:49 906K
20260428T00Z_MSC_RDPS_WindDir_IsbL-0970_RLatLon0.09_PT024H.grib2 2026-04-28 02:49 911K
20260428T00Z_MSC_RDPS_WindDir_IsbL-0985_RLatLon0.09_PT024H.grib2 2026-04-28 02:49 918K
20260428T00Z_MSC_RDPS_WindDir_IsbL-1000_RLatLon0.09_PT024H.grib2 2026-04-28 02:49 928K
20260428T00Z_MSC_RDPS_WindDir_IsbL-1015_RLatLon0.09_PT024H.grib2 2026-04-28 02:49 942K
20260428T00Z_MSC_RDPS_WindGust-Max_AGL-10m_RLatLon0.09_PT024H.grib2 2026-04-28 02:49 947K
20260428T00Z_MSC_RDPS_WindGust-Min_AGL-10m_RLatLon0.09_PT024H.grib2 2026-04-28 02:49 1.0M
20260428T00Z_MSC_RDPS_WindGust_AGL-10m_RLatLon0.09_PT024H.grib2 2026-04-28 02:49 1.0M
20260428T00Z_MSC_RDPS_WindSpeed_AGL-10m_RLatLon0.09_PT024H.grib2 2026-04-28 02:49 833K
20260428T00Z_MSC_RDPS_WindSpeed_AGL-120m_RLatLon0.09_PT024H.grib2 2026-04-28 02:49 542K
20260428T00Z_MSC_RDPS_WindSpeed_AGL-40m_RLatLon0.09_PT024H.grib2 2026-04-28 02:49 536K
20260428T00Z_MSC_RDPS_WindSpeed_AGL-80m_RLatLon0.09_PT024H.grib2 2026-04-28 02:49 544K
20260428T00Z_MSC_RDPS_WindSpeed_IsbL-0001_RLatLon0.09_PT024H.grib2 2026-04-28 02:49 256K
20260428T00Z_MSC_RDPS_WindSpeed_IsbL-0005_RLatLon0.09_PT024H.grib2 2026-04-28 02:49 300K
20260428T00Z_MSC_RDPS_WindSpeed_IsbL-0010_RLatLon0.09_PT024H.grib2 2026-04-28 02:49 313K
20260428T00Z_MSC_RDPS_WindSpeed_IsbL-0020_RLatLon0.09_PT024H.grib2 2026-04-28 02:49 329K
20260428T00Z_MSC_RDPS_WindSpeed_IsbL-0030_RLatLon0.09_PT024H.grib2 2026-04-28 02:49 322K
20260428T00Z_MSC_RDPS_WindSpeed_IsbL-0050_RLatLon0.09_PT024H.grib2 2026-04-28 02:49 355K
20260428T00Z_MSC_RDPS_WindSpeed_IsbL-0100_RLatLon0.09_PT024H.grib2 2026-04-28 02:49 452K
20260428T00Z_MSC_RDPS_WindSpeed_IsbL-0150_RLatLon0.09_PT024H.grib2 2026-04-28 02:49 393K
20260428T00Z_MSC_RDPS_WindSpeed_IsbL-0175_RLatLon0.09_PT024H.grib2 2026-04-28 02:49 440K
20260428T00Z_MSC_RDPS_WindSpeed_IsbL-0200_RLatLon0.09_PT024H.grib2 2026-04-28 02:49 458K
20260428T00Z_MSC_RDPS_WindSpeed_IsbL-0225_RLatLon0.09_PT024H.grib2 2026-04-28 02:49 463K
20260428T00Z_MSC_RDPS_WindSpeed_IsbL-0250_RLatLon0.09_PT024H.grib2 2026-04-28 02:49 465K
20260428T00Z_MSC_RDPS_WindSpeed_IsbL-0275_RLatLon0.09_PT024H.grib2 2026-04-28 02:49 483K
20260428T00Z_MSC_RDPS_WindSpeed_IsbL-0300_RLatLon0.09_PT024H.grib2 2026-04-28 02:49 481K
20260428T00Z_MSC_RDPS_WindSpeed_IsbL-0350_RLatLon0.09_PT024H.grib2 2026-04-28 02:49 489K
20260428T00Z_MSC_RDPS_WindSpeed_IsbL-0400_RLatLon0.09_PT024H.grib2 2026-04-28 02:49 472K
20260428T00Z_MSC_RDPS_WindSpeed_IsbL-0450_RLatLon0.09_PT024H.grib2 2026-04-28 02:49 472K
20260428T00Z_MSC_RDPS_WindSpeed_IsbL-0500_RLatLon0.09_PT024H.grib2 2026-04-28 02:49 473K
20260428T00Z_MSC_RDPS_WindSpeed_IsbL-0550_RLatLon0.09_PT024H.grib2 2026-04-28 02:49 591K
20260428T00Z_MSC_RDPS_WindSpeed_IsbL-0600_RLatLon0.09_PT024H.grib2 2026-04-28 02:49 597K
20260428T00Z_MSC_RDPS_WindSpeed_IsbL-0650_RLatLon0.09_PT024H.grib2 2026-04-28 02:49 615K
20260428T00Z_MSC_RDPS_WindSpeed_IsbL-0700_RLatLon0.09_PT024H.grib2 2026-04-28 02:49 636K
20260428T00Z_MSC_RDPS_WindSpeed_IsbL-0750_RLatLon0.09_PT024H.grib2 2026-04-28 02:49 664K
20260428T00Z_MSC_RDPS_WindSpeed_IsbL-0800_RLatLon0.09_PT024H.grib2 2026-04-28 02:49 708K
20260428T00Z_MSC_RDPS_WindSpeed_IsbL-0850_RLatLon0.09_PT024H.grib2 2026-04-28 02:49 762K
20260428T00Z_MSC_RDPS_WindSpeed_IsbL-0875_RLatLon0.09_PT024H.grib2 2026-04-28 02:49 782K
20260428T00Z_MSC_RDPS_WindSpeed_IsbL-0900_RLatLon0.09_PT024H.grib2 2026-04-28 02:49 844K
20260428T00Z_MSC_RDPS_WindSpeed_IsbL-0925_RLatLon0.09_PT024H.grib2 2026-04-28 02:49 855K
20260428T00Z_MSC_RDPS_WindSpeed_IsbL-0950_RLatLon0.09_PT024H.grib2 2026-04-28 02:49 855K
20260428T00Z_MSC_RDPS_WindSpeed_IsbL-0970_RLatLon0.09_PT024H.grib2 2026-04-28 02:49 853K
20260428T00Z_MSC_RDPS_WindSpeed_IsbL-0985_RLatLon0.09_PT024H.grib2 2026-04-28 02:49 851K
20260428T00Z_MSC_RDPS_WindSpeed_IsbL-1000_RLatLon0.09_PT024H.grib2 2026-04-28 02:49 844K
20260428T00Z_MSC_RDPS_WindSpeed_IsbL-1015_RLatLon0.09_PT024H.grib2 2026-04-28 02:49 835K
20260428T00Z_MSC_RDPS_WindU_AGL-10m_RLatLon0.09_PT024H.grib2 2026-04-28 02:49 430K
20260428T00Z_MSC_RDPS_WindU_AGL-120m_RLatLon0.09_PT024H.grib2 2026-04-28 02:49 413K
20260428T00Z_MSC_RDPS_WindU_AGL-40m_RLatLon0.09_PT024H.grib2 2026-04-28 02:49 417K
20260428T00Z_MSC_RDPS_WindU_AGL-80m_RLatLon0.09_PT024H.grib2 2026-04-28 02:49 415K
20260428T00Z_MSC_RDPS_WindU_IsbL-0001_RLatLon0.09_PT024H.grib2 2026-04-28 02:49 296K
20260428T00Z_MSC_RDPS_WindU_IsbL-0005_RLatLon0.09_PT024H.grib2 2026-04-28 02:49 336K
20260428T00Z_MSC_RDPS_WindU_IsbL-0010_RLatLon0.09_PT024H.grib2 2026-04-28 02:49 303K
20260428T00Z_MSC_RDPS_WindU_IsbL-0020_RLatLon0.09_PT024H.grib2 2026-04-28 02:49 357K
20260428T00Z_MSC_RDPS_WindU_IsbL-0030_RLatLon0.09_PT024H.grib2 2026-04-28 02:49 354K
20260428T00Z_MSC_RDPS_WindU_IsbL-0050_RLatLon0.09_PT024H.grib2 2026-04-28 02:49 382K
20260428T00Z_MSC_RDPS_WindU_IsbL-0100_RLatLon0.09_PT024H.grib2 2026-04-28 02:49 346K
20260428T00Z_MSC_RDPS_WindU_IsbL-0150_RLatLon0.09_PT024H.grib2 2026-04-28 02:49 408K
20260428T00Z_MSC_RDPS_WindU_IsbL-0175_RLatLon0.09_PT024H.grib2 2026-04-28 02:49 434K
20260428T00Z_MSC_RDPS_WindU_IsbL-0200_RLatLon0.09_PT024H.grib2 2026-04-28 02:49 350K
20260428T00Z_MSC_RDPS_WindU_IsbL-0225_RLatLon0.09_PT024H.grib2 2026-04-28 02:49 353K
20260428T00Z_MSC_RDPS_WindU_IsbL-0250_RLatLon0.09_PT024H.grib2 2026-04-28 02:49 354K
20260428T00Z_MSC_RDPS_WindU_IsbL-0275_RLatLon0.09_PT024H.grib2 2026-04-28 02:49 369K
20260428T00Z_MSC_RDPS_WindU_IsbL-0300_RLatLon0.09_PT024H.grib2 2026-04-28 02:49 366K
20260428T00Z_MSC_RDPS_WindU_IsbL-0350_RLatLon0.09_PT024H.grib2 2026-04-28 02:49 474K
20260428T00Z_MSC_RDPS_WindU_IsbL-0400_RLatLon0.09_PT024H.grib2 2026-04-28 02:49 475K
20260428T00Z_MSC_RDPS_WindU_IsbL-0450_RLatLon0.09_PT024H.grib2 2026-04-28 02:49 476K
20260428T00Z_MSC_RDPS_WindU_IsbL-0500_RLatLon0.09_PT024H.grib2 2026-04-28 02:49 477K
20260428T00Z_MSC_RDPS_WindU_IsbL-0550_RLatLon0.09_PT024H.grib2 2026-04-28 02:49 461K
20260428T00Z_MSC_RDPS_WindU_IsbL-0600_RLatLon0.09_PT024H.grib2 2026-04-28 02:49 468K
20260428T00Z_MSC_RDPS_WindU_IsbL-0650_RLatLon0.09_PT024H.grib2 2026-04-28 02:49 485K
20260428T00Z_MSC_RDPS_WindU_IsbL-0700_RLatLon0.09_PT024H.grib2 2026-04-28 02:49 505K
20260428T00Z_MSC_RDPS_WindU_IsbL-0750_RLatLon0.09_PT024H.grib2 2026-04-28 02:49 530K
20260428T00Z_MSC_RDPS_WindU_IsbL-0800_RLatLon0.09_PT024H.grib2 2026-04-28 02:49 570K
20260428T00Z_MSC_RDPS_WindU_IsbL-0850_RLatLon0.09_PT024H.grib2 2026-04-28 02:49 619K
20260428T00Z_MSC_RDPS_WindU_IsbL-0875_RLatLon0.09_PT024H.grib2 2026-04-28 02:49 636K
20260428T00Z_MSC_RDPS_WindU_IsbL-0900_RLatLon0.09_PT024H.grib2 2026-04-28 02:49 647K
20260428T00Z_MSC_RDPS_WindU_IsbL-0925_RLatLon0.09_PT024H.grib2 2026-04-28 02:49 654K
20260428T00Z_MSC_RDPS_WindU_IsbL-0950_RLatLon0.09_PT024H.grib2 2026-04-28 02:49 651K
20260428T00Z_MSC_RDPS_WindU_IsbL-0970_RLatLon0.09_PT024H.grib2 2026-04-28 02:49 650K
20260428T00Z_MSC_RDPS_WindU_IsbL-0985_RLatLon0.09_PT024H.grib2 2026-04-28 02:49 648K
20260428T00Z_MSC_RDPS_WindU_IsbL-1000_RLatLon0.09_PT024H.grib2 2026-04-28 02:49 643K
20260428T00Z_MSC_RDPS_WindU_IsbL-1015_RLatLon0.09_PT024H.grib2 2026-04-28 02:49 774K
20260428T00Z_MSC_RDPS_WindV_AGL-10m_RLatLon0.09_PT024H.grib2 2026-04-28 02:49 430K
20260428T00Z_MSC_RDPS_WindV_AGL-120m_RLatLon0.09_PT024H.grib2 2026-04-28 02:49 528K
20260428T00Z_MSC_RDPS_WindV_AGL-40m_RLatLon0.09_PT024H.grib2 2026-04-28 02:49 532K
20260428T00Z_MSC_RDPS_WindV_AGL-80m_RLatLon0.09_PT024H.grib2 2026-04-28 02:49 530K
20260428T00Z_MSC_RDPS_WindV_IsbL-0001_RLatLon0.09_PT024H.grib2 2026-04-28 02:49 246K
20260428T00Z_MSC_RDPS_WindV_IsbL-0005_RLatLon0.09_PT024H.grib2 2026-04-28 02:49 292K
20260428T00Z_MSC_RDPS_WindV_IsbL-0010_RLatLon0.09_PT024H.grib2 2026-04-28 02:49 304K
20260428T00Z_MSC_RDPS_WindV_IsbL-0020_RLatLon0.09_PT024H.grib2 2026-04-28 02:49 321K
20260428T00Z_MSC_RDPS_WindV_IsbL-0030_RLatLon0.09_PT024H.grib2 2026-04-28 02:49 318K
20260428T00Z_MSC_RDPS_WindV_IsbL-0050_RLatLon0.09_PT024H.grib2 2026-04-28 02:49 349K
20260428T00Z_MSC_RDPS_WindV_IsbL-0100_RLatLon0.09_PT024H.grib2 2026-04-28 02:49 438K
20260428T00Z_MSC_RDPS_WindV_IsbL-0150_RLatLon0.09_PT024H.grib2 2026-04-28 02:49 405K
20260428T00Z_MSC_RDPS_WindV_IsbL-0175_RLatLon0.09_PT024H.grib2 2026-04-28 02:49 432K
20260428T00Z_MSC_RDPS_WindV_IsbL-0200_RLatLon0.09_PT024H.grib2 2026-04-28 02:49 347K
20260428T00Z_MSC_RDPS_WindV_IsbL-0225_RLatLon0.09_PT024H.grib2 2026-04-28 02:49 350K
20260428T00Z_MSC_RDPS_WindV_IsbL-0250_RLatLon0.09_PT024H.grib2 2026-04-28 02:49 351K
20260428T00Z_MSC_RDPS_WindV_IsbL-0275_RLatLon0.09_PT024H.grib2 2026-04-28 02:49 388K
20260428T00Z_MSC_RDPS_WindV_IsbL-0300_RLatLon0.09_PT024H.grib2 2026-04-28 02:49 362K
20260428T00Z_MSC_RDPS_WindV_IsbL-0350_RLatLon0.09_PT024H.grib2 2026-04-28 02:49 370K
20260428T00Z_MSC_RDPS_WindV_IsbL-0400_RLatLon0.09_PT024H.grib2 2026-04-28 02:49 371K
20260428T00Z_MSC_RDPS_WindV_IsbL-0450_RLatLon0.09_PT024H.grib2 2026-04-28 02:49 371K
20260428T00Z_MSC_RDPS_WindV_IsbL-0500_RLatLon0.09_PT024H.grib2 2026-04-28 02:49 476K
20260428T00Z_MSC_RDPS_WindV_IsbL-0550_RLatLon0.09_PT024H.grib2 2026-04-28 02:49 476K
20260428T00Z_MSC_RDPS_WindV_IsbL-0600_RLatLon0.09_PT024H.grib2 2026-04-28 02:49 482K
20260428T00Z_MSC_RDPS_WindV_IsbL-0650_RLatLon0.09_PT024H.grib2 2026-04-28 02:49 498K
20260428T00Z_MSC_RDPS_WindV_IsbL-0700_RLatLon0.09_PT024H.grib2 2026-04-28 02:49 516K
20260428T00Z_MSC_RDPS_WindV_IsbL-0750_RLatLon0.09_PT024H.grib2 2026-04-28 02:49 538K
20260428T00Z_MSC_RDPS_WindV_IsbL-0800_RLatLon0.09_PT024H.grib2 2026-04-28 02:49 575K
20260428T00Z_MSC_RDPS_WindV_IsbL-0850_RLatLon0.09_PT024H.grib2 2026-04-28 02:49 621K
20260428T00Z_MSC_RDPS_WindV_IsbL-0875_RLatLon0.09_PT024H.grib2 2026-04-28 02:49 639K
20260428T00Z_MSC_RDPS_WindV_IsbL-0900_RLatLon0.09_PT024H.grib2 2026-04-28 02:49 651K
20260428T00Z_MSC_RDPS_WindV_IsbL-0925_RLatLon0.09_PT024H.grib2 2026-04-28 02:49 651K
20260428T00Z_MSC_RDPS_WindV_IsbL-0950_RLatLon0.09_PT024H.grib2 2026-04-28 02:49 650K
20260428T00Z_MSC_RDPS_WindV_IsbL-0970_RLatLon0.09_PT024H.grib2 2026-04-28 02:49 650K
20260428T00Z_MSC_RDPS_WindV_IsbL-0985_RLatLon0.09_PT024H.grib2 2026-04-28 02:49 787K
20260428T00Z_MSC_RDPS_WindV_IsbL-1000_RLatLon0.09_PT024H.grib2 2026-04-28 02:49 781K
20260428T00Z_MSC_RDPS_WindV_IsbL-1015_RLatLon0.09_PT024H.grib2 2026-04-28 02:49 821K